User: anonymous
Location: Unspecified
(0.0000°N, 0.0000°E)
Time: 01:57:36
(UTC+02:00)
Language:

Centaur AC-64 - Orbit

View from above orbital plane
View from above orbital plane
View from above satellite
View from above satellite

Ground track
Ground track

The orbit data is extracted from the following two-line orbital elements,

1 15874U 85055B   14106.84530024  .00002558  00000-0  12611-2 0  4657
2 15874 023.2370 029.4620 6612215 128.6148 348.9061 03.12702673293770
Epoch (UTC): 16 April 2014 20:17:13
Eccentricity: 0.6612215
inclination: 23.2370°
perigee height: 314 km
apogee height: 26437 km
right ascension of ascending node: 29.4620°
argument of perigee: 128.6148°
revolutions per day: 3.12702673
mean anomaly at epoch: 348.9061°
orbit number at epoch: 29377

The dashed part of the orbit path shows where the satellite is in the earth's shadow,  

DLR